When you browse on this site, cookies collect data to enhance your experience and personalize the content and advertising you see.
Visit our Privacy Policy to learn more. By continuing to use the site, you agree to this use of cookies and data.
  • In Slovakia
  • List of Countries
  • For 7 days
  • Water Temperature
  • Satellite Maps
  • Weather Map
  • Weather Widgets
  • user-avatar
    Login

    Hourly Weather Marbella

    Today, 26 June, Wednesday

    Time Temperature Precipitation Wind Pressure Humidity
    00:00 +21°C° 0 mm 2 mps 756 mmHg 81%
    01:00 +21°C° 0 mm 2 mps 756 mmHg 78%
    02:00 +22°C° 0 mm 1 mps 756 mmHg 75%
    03:00 +22°C° 0 mm 1 mps 756 mmHg 72%
    04:00 +23°C° 0 mm 1 mps 756 mmHg 72%
    05:00 +21°C° 0 mm 0 mps 756 mmHg 73%
    06:00 +21°C° 0 mm 0 mps 756 mmHg 73%
    07:00 +25°C° 0 mm 1 mps 757 mmHg 66%
    08:00 +26°C° 0 mm 1 mps 757 mmHg 60%
    09:00 +28°C° 0 mm 2 mps 757 mmHg 54%
    10:00 +29°C° 0 mm 2 mps 757 mmHg 51%
    11:00 +30°C° 0 mm 2 mps 757 mmHg 49%
    12:00 +31°C° 0 mm 3 mps 757 mmHg 47%
    13:00 +31°C° 0 mm 2 mps 756 mmHg 45%
    14:00 +32°C° 0 mm 2 mps 756 mmHg 44%
    15:00 +34°C° 0 mm 2 mps 755 mmHg 42%
    16:00 +32°C° 0 mm 2 mps 755 mmHg 45%
    17:00 +31°C° 0 mm 2 mps 755 mmHg 48%
    18:00 +30°C° 0 mm 2 mps 755 mmHg 51%
    19:00 +28°C° 0 mm 2 mps 755 mmHg 60%
    20:00 +26°C° 0 mm 1 mps 756 mmHg 68%
    21:00 +23°C° 0 mm 1 mps 757 mmHg 77%
    22:00 +23°C° 0 mm 1 mps 757 mmHg 76%
    23:00 +23°C° 0 mm 1 mps 757 mmHg 76%

    Tomorrow, 27 June, Thursday

    Time Temperature Precipitation Wind Pressure Humidity
    00:00 +23°C° 0 mm 2 mps 757 mmHg 75%
    01:00 +23°C° 0 mm 1 mps 756 mmHg 72%
    02:00 +23°C° 0 mm 1 mps 756 mmHg 70%
    03:00 +21°C° 0 mm 0 mps 756 mmHg 67%
    04:00 +21°C° 0 mm 0 mps 756 mmHg 68%
    05:00 +24°C° 0 mm 1 mps 756 mmHg 68%
    06:00 +24°C° 0 mm 1 mps 756 mmHg 69%
    07:00 +26°C° 0 mm 1 mps 756 mmHg 63%
    08:00 +28°C° 0 mm 1 mps 756 mmHg 57%
    09:00 +29°C° 0 mm 1 mps 757 mmHg 52%
    10:00 +30°C° 0 mm 2 mps 756 mmHg 49%
    11:00 +31°C° 0 mm 2 mps 756 mmHg 47%
    12:00 +32°C° 0 mm 2 mps 756 mmHg 45%
    13:00 +34°C° 0 mm 2 mps 756 mmHg 43%
    14:00 +35°C° 0 mm 2 mps 755 mmHg 41%
    15:00 +35°C° 0 mm 3 mps 755 mmHg 40%
    16:00 +35°C° 0 mm 3 mps 755 mmHg 41%
    17:00 +34°C° 0 mm 2 mps 755 mmHg 43%
    18:00 +32°C° 0 mm 2 mps 754 mmHg 44%
    19:00 +30°C° 0 mm 2 mps 755 mmHg 53%
    20:00 +28°C° 0 mm 2 mps 755 mmHg 62%
    21:00 +25°C° 0 mm 2 mps 756 mmHg 71%
    22:00 +25°C° 0 mm 1 mps 756 mmHg 70%
    23:00 +25°C° 0 mm 1 mps 756 mmHg 70%

    Day after tomorrow, 28 June, Friday

    Time Temperature Precipitation Wind Pressure Humidity
    00:00 +25°C° 0 mm 1 mps 756 mmHg 69%
    01:00 +24°C° 0 mm 1 mps 756 mmHg 70%
    02:00 +24°C° 0 mm 1 mps 755 mmHg 71%
    03:00 +24°C° 0 mm 1 mps 755 mmHg 71%
    04:00 +24°C° 0 mm 1 mps 755 mmHg 70%
    05:00 +25°C° 0 mm 1 mps 755 mmHg 69%
    06:00 +23°C° 0 mm 0 mps 755 mmHg 67%
    07:00 +27°C° 0 mm 1 mps 755 mmHg 61%
    08:00 +29°C° 0 mm 1 mps 755 mmHg 55%
    09:00 +31°C° 0 mm 2 mps 755 mmHg 49%
    10:00 +32°C° 0 mm 2 mps 755 mmHg 44%
    11:00 +34°C° 0 mm 2 mps 755 mmHg 40%
    12:00 +36°C° 0 mm 2 mps 754 mmHg 36%
    13:00 +36°C° 0 mm 2 mps 754 mmHg 35%
    14:00 +36°C° 0 mm 2 mps 753 mmHg 33%
    15:00 +36°C° 0 mm 2 mps 753 mmHg 32%
    16:00 +36°C° 0 mm 2 mps 753 mmHg 33%
    17:00 +35°C° 0 mm 2 mps 753 mmHg 35%
    18:00 +33°C° 0 mm 1 mps 752 mmHg 36%
    19:00 +31°C° 0 mm 1 mps 753 mmHg 43%
    20:00 +29°C° 0 mm 1 mps 753 mmHg 50%
    21:00 +26°C° 0 mm 1 mps 754 mmHg 57%
    22:00 +26°C° 0 mm 1 mps 754 mmHg 55%
    23:00 +26°C° 0 mm 2 mps 754 mmHg 52%

    29 June, Saturday

    Time Temperature Precipitation Wind Pressure Humidity
    00:00 +26°C° 0 mm 2 mps 754 mmHg 50%
    01:00 +26°C° 0 mm 2 mps 754 mmHg 51%
    02:00 +25°C° 0 mm 1 mps 754 mmHg 53%
    03:00 +25°C° 0 mm 1 mps 754 mmHg 55%
    04:00 +25°C° 0 mm 1 mps 754 mmHg 54%
    05:00 +26°C° 0 mm 1 mps 754 mmHg 52%
    06:00 +26°C° 0 mm 1 mps 754 mmHg 51%
    07:00 +28°C° 0 mm 1 mps 754 mmHg 45%
    08:00 +31°C° 0 mm 2 mps 754 mmHg 39%
    09:00 +34°C° 0 mm 2 mps 754 mmHg 33%
    10:00 +35°C° 0 mm 3 mps 754 mmHg 30%
    11:00 +36°C° 0 mm 3 mps 754 mmHg 28%
    12:00 +37°C° 0 mm 3 mps 753 mmHg 25%
    13:00 +37°C° 0 mm 3 mps 753 mmHg 25%
    14:00 +37°C° 0 mm 3 mps 753 mmHg 24%
    15:00 +38°C° 0 mm 3 mps 752 mmHg 23%
    16:00 +37°C° 0 mm 3 mps 752 mmHg 25%
    17:00 +36°C° 0 mm 3 mps 752 mmHg 26%
    18:00 +36°C° 0 mm 3 mps 752 mmHg 28%
    19:00 +32°C° 0 mm 2 mps 753 mmHg 34%
    20:00 +30°C° 0 mm 2 mps 753 mmHg 41%
    21:00 +27°C° 0 mm 2 mps 754 mmHg 48%
    22:00 +27°C° 0 mm 2 mps 754 mmHg 45%
    23:00 +27°C° 0 mm 2 mps 754 mmHg 41%

    30 June, Sunday

    Time Temperature Precipitation Wind Pressure Humidity
    00:00 +28°C° 0 mm 2 mps 755 mmHg 38%
    01:00 +27°C° 0 mm 2 mps 754 mmHg 40%
    02:00 +26°C° 0 mm 2 mps 754 mmHg 43%
    03:00 +26°C° 0 mm 1 mps 754 mmHg 45%
    04:00 +26°C° 0 mm 1 mps 754 mmHg 45%
    05:00 +26°C° 0 mm 1 mps 754 mmHg 45%
    06:00 +27°C° 0 mm 1 mps 755 mmHg 45%
    07:00 +29°C° 0 mm 2 mps 755 mmHg 40%
    08:00 +31°C° 0 mm 2 mps 755 mmHg 35%
    09:00 +34°C° 0 mm 3 mps 755 mmHg 30%
    10:00 +35°C° 0 mm 3 mps 755 mmHg 28%
    11:00 +36°C° 0 mm 3 mps 755 mmHg 26%
    12:00 +37°C° 0 mm 3 mps 756 mmHg 24%
    13:00 +37°C° 0 mm 3 mps 755 mmHg 23%
    14:00 +37°C° 0 mm 3 mps 755 mmHg 22%
    15:00 +37°C° 0 mm 3 mps 755 mmHg 22%
    16:00 +37°C° 0 mm 3 mps 755 mmHg 24%
    17:00 +36°C° 0 mm 2 mps 755 mmHg 26%
    18:00 +35°C° 0 mm 2 mps 755 mmHg 28%
    19:00 +31°C° 0 mm 2 mps 755 mmHg 34%
    20:00 +29°C° 0 mm 1 mps 756 mmHg 40%
    21:00 +27°C° 0 mm 1 mps 756 mmHg 46%
    22:00 +26°C° 0 mm 1 mps 756 mmHg 47%
    23:00 +26°C° 0 mm 1 mps 756 mmHg 48%

    1 July, Monday

    Time Temperature Precipitation Wind Pressure Humidity
    00:00 +26°C° 0 mm 1 mps 757 mmHg 49%
    01:00 +25°C° 0 mm 1 mps 756 mmHg 51%
    02:00 +25°C° 0 mm 1 mps 756 mmHg 53%
    03:00 +25°C° 0 mm 1 mps 756 mmHg 55%
    04:00 +25°C° 0 mm 1 mps 756 mmHg 54%
    05:00 +25°C° 0 mm 1 mps 756 mmHg 53%
    06:00 +26°C° 0 mm 1 mps 757 mmHg 52%
    07:00 +28°C° 0 mm 1 mps 756 mmHg 46%
    08:00 +30°C° 0 mm 2 mps 756 mmHg 41%
    09:00 +32°C° 0 mm 2 mps 756 mmHg 36%
    10:00 +34°C° 0 mm 2 mps 756 mmHg 34%
    11:00 +36°C° 0 mm 2 mps 756 mmHg 32%
    12:00 +37°C° 0 mm 2 mps 756 mmHg 29%
    13:00 +37°C° 0 mm 2 mps 756 mmHg 30%
    14:00 +36°C° 0 mm 2 mps 755 mmHg 30%
    15:00 +36°C° 0 mm 2 mps 754 mmHg 30%
    16:00 +35°C° 0 mm 2 mps 754 mmHg 33%
    17:00 +33°C° 0 mm 1 mps 754 mmHg 35%
    18:00 +32°C° 0 mm 1 mps 753 mmHg 38%
    19:00 +30°C° 0 mm 1 mps 754 mmHg 45%
    20:00 +28°C° 0 mm 1 mps 754 mmHg 52%
    21:00 +26°C° 0 mm 1 mps 755 mmHg 58%
    22:00 +26°C° 0 mm 1 mps 755 mmHg 60%
    23:00 +25°C° 0 mm 1 mps 755 mmHg 61%
    Show more